Time,TemperatureF,DewpointF,PressureIn,WindDirection,WindDirectionDegrees,WindSpeedMPH,WindSpeedGustMPH,Humidity,HourlyPrecipIn,Conditions,Clouds,dailyrainin,SolarRadiationWatts/m^2,SoftwareType,DateUTC
2013-03-21 00:00:00,77.4,72.9,29.94,SE,138,0.0,0.0,86,0.00,,,0.00,0.0,meteohub,2013-03-21 04:00:00,
2013-03-21 00:01:00,77.4,73.2,29.94,SE,138,0.0,3.0,87,0.00,,,0.00,0.0,meteohub,2013-03-21 04:01:00,
2013-03-21 00:06:00,77.4,73.2,29.94,South,171,0.0,3.0,87,0.00,,,0.00,0.0,meteohub,2013-03-21 04:06:00,
2013-03-21 00:12:00,77.2,73.0,29.94,South,178,0.0,6.0,87,0.00,,,0.00,0.0,meteohub,2013-03-21 04:12:00,
2013-03-21 00:17:00,77.0,72.5,29.94,SSE,168,2.0,10.0,86,0.00,,,0.00,0.0,meteohub,2013-03-21 04:17:00,
2013-03-21 00:22:00,77.0,72.5,29.94,South,169,0.0,10.0,86,0.00,,,0.00,0.0,meteohub,2013-03-21 04:22:00,
2013-03-21 00:27:00,77.0,72.5,29.94,SSE,168,0.0,10.0,86,0.00,,,0.00,0.0,meteohub,2013-03-21 04:27:00,
2013-03-21 00:32:00,77.0,72.5,29.93,SE,137,2.0,8.0,86,0.00,,,0.00,0.0,meteohub,2013-03-21 04:32:00,
2013-03-21 00:37:00,77.0,72.1,29.93,SE,136,0.0,5.0,85,0.00,,,0.00,0.0,meteohub,2013-03-21 04:37:00,
2013-03-21 00:42:00,77.0,72.1,29.93,ESE,109,1.0,5.0,85,0.00,,,0.00,0.0,meteohub,2013-03-21 04:42:00,
2013-03-21 00:47:00,77.0,72.1,29.93,East,97,0.0,5.0,85,0.00,,,0.00,0.0,meteohub,2013-03-21 04:47:00,
2013-03-21 00:52:00,77.0,72.1,29.93,East,97,0.0,5.0,85,0.00,,,0.00,0.0,meteohub,2013-03-21 04:52:00,
2013-03-21 00:57:00,77.0,72.1,29.92,SE,131,0.0,5.0,85,0.00,,,0.00,0.0,meteohub,2013-03-21 04:57:00,
2013-03-21 01:02:00,76.8,72.0,29.92,SE,138,0.0,5.0,85,0.00,,,0.00,0.0,meteohub,2013-03-21 05:02:00,
2013-03-21 01:07:00,76.8,72.0,29.92,SSE,168,0.0,5.0,85,0.00,,,0.00,0.0,meteohub,2013-03-21 05:07:00,
2013-03-21 01:13:00,76.8,72.3,29.91,SSE,167,4.0,7.0,86,0.00,,,0.00,0.0,meteohub,2013-03-21 05:13:00,
2013-03-21 01:18:00,76.6,72.1,29.91,SSE,167,1.0,7.0,86,0.00,,,0.00,0.0,meteohub,2013-03-21 05:18:00,
2013-03-21 01:23:00,76.6,72.1,29.91,South,175,0.0,7.0,86,0.00,,,0.00,0.0,meteohub,2013-03-21 05:23:00,
2013-03-21 01:28:00,76.6,72.1,29.91,South,174,0.0,7.0,86,0.00,,,0.00,0.0,meteohub,2013-03-21 05:28:00,
2013-03-21 01:33:00,76.5,72.3,29.91,SSE,168,0.0,6.0,87,0.00,,,0.00,0.0,meteohub,2013-03-21 05:33:00,
2013-03-21 01:38:00,76.5,72.0,29.91,SSE,168,0.0,6.0,86,0.00,,,0.00,0.0,meteohub,2013-03-21 05:38:00,
2013-03-21 01:43:00,76.5,72.0,29.91,SSE,168,0.0,5.0,86,0.00,,,0.00,0.0,meteohub,2013-03-21 05:43:00,
2013-03-21 01:48:00,76.5,72.0,29.91,SSE,158,0.0,0.0,86,0.00,,,0.00,0.0,meteohub,2013-03-21 05:48:00,
2013-03-21 01:53:00,76.5,72.0,29.91,SSE,155,0.0,0.0,86,0.00,,,0.00,0.0,meteohub,2013-03-21 05:53:00,
2013-03-21 01:58:00,76.5,72.0,29.90,SSE,155,0.0,4.0,86,0.00,,,0.00,0.0,meteohub,2013-03-21 05:58:00,
2013-03-21 02:03:00,76.5,72.0,29.90,SSE,151,0.0,4.0,86,0.00,,,0.00,0.0,meteohub,2013-03-21 06:03:00,
2013-03-21 02:08:00,76.3,71.8,29.90,SSE,152,0.0,4.0,86,0.00,,,0.00,0.0,meteohub,2013-03-21 06:08:00,
2013-03-21 02:13:00,76.3,71.8,29.90,SSE,154,0.0,4.0,86,0.00,,,0.00,0.0,meteohub,2013-03-21 06:13:00,
2013-03-21 02:18:00,76.3,71.8,29.90,SSE,152,0.0,4.0,86,0.00,,,0.00,0.0,meteohub,2013-03-21 06:18:00,
2013-03-21 02:23:00,76.1,71.6,29.90,SSE,154,0.0,2.0,86,0.00,,,0.00,0.0,meteohub,2013-03-21 06:23:00,
2013-03-21 02:28:00,76.1,71.6,29.90,SSE,154,0.0,1.0,86,0.00,,,0.00,0.0,meteohub,2013-03-21 06:28:00,
2013-03-21 02:33:00,76.1,71.6,29.90,SSE,157,0.0,1.0,86,0.00,,,0.00,0.0,meteohub,2013-03-21 06:33:00,
2013-03-21 02:38:00,75.9,71.4,29.90,SSE,155,0.0,1.0,86,0.00,,,0.00,0.0,meteohub,2013-03-21 06:38:00,
2013-03-21 02:43:00,76.1,71.6,29.89,SSE,154,0.0,0.0,86,0.00,,,0.00,0.0,meteohub,2013-03-21 06:43:00,
2013-03-21 02:48:00,76.1,71.6,29.89,SE,141,0.0,0.0,86,0.00,,,0.00,0.0,meteohub,2013-03-21 06:48:00,
2013-03-21 02:53:00,75.9,71.4,29.89,SSE,160,2.0,6.0,86,0.00,,,0.00,0.0,meteohub,2013-03-21 06:53:00,
2013-03-21 02:58:00,75.9,71.4,29.88,SSE,160,4.0,6.0,86,0.00,,,0.00,0.0,meteohub,2013-03-21 06:58:00,
2013-03-21 03:03:00,75.9,71.4,29.88,SE,131,2.0,7.0,86,0.00,,,0.00,0.0,meteohub,2013-03-21 07:03:00,
2013-03-21 03:08:00,75.9,71.4,29.88,South,182,5.0,7.0,86,0.00,,,0.00,0.0,meteohub,2013-03-21 07:08:00,
2013-03-21 03:13:00,75.9,71.4,29.89,SSE,164,0.0,7.0,86,0.00,,,0.00,0.0,meteohub,2013-03-21 07:13:00,
2013-03-21 03:19:00,75.9,71.4,29.89,SE,144,0.0,7.0,86,0.00,,,0.00,0.0,meteohub,2013-03-21 07:19:00,
2013-03-21 03:24:00,75.9,71.1,29.89,SSE,152,0.0,7.0,85,0.00,,,0.00,0.0,meteohub,2013-03-21 07:24:00,
2013-03-21 03:29:00,76.1,71.2,29.89,SE,133,0.0,7.0,85,0.00,,,0.00,0.0,meteohub,2013-03-21 07:29:00,
2013-03-21 03:34:00,76.1,71.2,29.89,SE,133,6.0,7.0,85,0.00,,,0.00,0.0,meteohub,2013-03-21 07:34:00,
2013-03-21 03:39:00,76.1,71.2,29.89,SE,140,0.0,7.0,85,0.00,,,0.00,0.0,meteohub,2013-03-21 07:39:00,
2013-03-21 03:44:00,76.1,71.2,29.89,SE,141,0.0,6.0,85,0.00,,,0.00,0.0,meteohub,2013-03-21 07:44:00,
2013-03-21 03:49:00,76.1,70.9,29.89,SE,133,0.0,6.0,84,0.00,,,0.00,0.0,meteohub,2013-03-21 07:49:00,
2013-03-21 03:54:00,76.3,71.1,29.89,SSE,150,0.0,7.0,84,0.00,,,0.00,0.0,meteohub,2013-03-21 07:54:00,
2013-03-21 03:59:00,76.3,71.1,29.89,SSE,150,0.0,7.0,84,0.00,,,0.00,0.0,meteohub,2013-03-21 07:59:00,
2013-03-21 04:04:00,76.3,71.1,29.89,SSE,148,0.0,7.0,84,0.00,,,0.00,0.0,meteohub,2013-03-21 08:04:00,
2013-03-21 04:09:00,76.3,71.1,29.89,SSE,148,0.0,7.0,84,0.00,,,0.00,0.0,meteohub,2013-03-21 08:09:00,
2013-03-21 04:14:00,76.3,71.1,29.89,SSE,150,0.0,5.0,84,0.00,,,0.00,0.0,meteohub,2013-03-21 08:14:00,
2013-03-21 04:19:00,76.3,71.1,29.89,SSE,148,0.0,0.0,84,0.00,,,0.00,0.0,meteohub,2013-03-21 08:19:00,
2013-03-21 04:24:00,76.3,71.1,29.89,SSE,150,0.0,1.0,84,0.00,,,0.00,0.0,meteohub,2013-03-21 08:24:00,
2013-03-21 04:29:00,76.5,71.2,29.89,SSE,151,0.0,1.0,84,0.00,,,0.00,0.0,meteohub,2013-03-21 08:29:00,
2013-03-21 04:34:00,76.5,71.2,29.89,SSE,165,0.0,5.0,84,0.00,,,0.00,0.0,meteohub,2013-03-21 08:34:00,
2013-03-21 04:39:00,76.5,71.2,29.89,SSE,165,0.0,8.0,84,0.00,,,0.00,0.0,meteohub,2013-03-21 08:39:00,
2013-03-21 04:44:00,76.5,71.2,29.90,SSE,160,0.0,8.0,84,0.00,,,0.00,0.0,meteohub,2013-03-21 08:44:00,
2013-03-21 04:49:00,76.5,71.2,29.90,SSE,161,0.0,8.0,84,0.00,,,0.00,0.0,meteohub,2013-03-21 08:49:00,
2013-03-21 04:54:00,76.5,71.2,29.90,SSE,161,0.0,5.0,84,0.00,,,0.00,0.0,meteohub,2013-03-21 08:54:00,
2013-03-21 04:59:00,76.5,71.6,29.90,SW,224,0.0,5.0,85,0.00,,,0.00,0.0,meteohub,2013-03-21 08:59:00,
2013-03-21 05:04:00,76.5,71.6,29.90,South,185,0.0,9.0,85,0.00,,,0.00,0.0,meteohub,2013-03-21 09:04:00,
2013-03-21 05:09:00,76.5,71.6,29.90,SSW,206,0.0,9.0,85,0.00,,,0.00,0.0,meteohub,2013-03-21 09:09:00,
2013-03-21 05:15:00,76.5,71.6,29.90,SSE,164,0.0,9.0,85,0.00,,,0.00,0.0,meteohub,2013-03-21 09:15:00,
2013-03-21 05:20:00,76.5,71.6,29.90,South,174,0.0,7.0,85,0.00,,,0.00,0.0,meteohub,2013-03-21 09:20:00,
2013-03-21 05:25:00,76.5,71.6,29.90,South,175,0.0,6.0,85,0.00,,,0.00,0.0,meteohub,2013-03-21 09:25:00,
2013-03-21 05:30:00,76.5,71.6,29.90,South,191,0.0,3.0,85,0.00,,,0.00,0.0,meteohub,2013-03-21 09:30:00,
2013-03-21 05:35:00,76.5,71.6,29.90,SSE,165,0.0,3.0,85,0.00,,,0.00,0.0,meteohub,2013-03-21 09:35:00,
2013-03-21 05:40:00,76.5,71.6,29.90,SSE,167,4.0,5.0,85,0.00,,,0.00,0.0,meteohub,2013-03-21 09:40:00,
2013-03-21 05:45:00,76.5,71.6,29.91,SSE,167,0.0,7.0,85,0.00,,,0.00,0.0,meteohub,2013-03-21 09:45:00,
2013-03-21 05:50:00,76.5,71.6,29.91,SSE,162,2.0,7.0,85,0.00,,,0.00,0.0,meteohub,2013-03-21 09:50:00,
2013-03-21 05:55:00,76.5,71.6,29.91,SSE,168,0.0,6.0,85,0.00,,,0.00,0.0,meteohub,2013-03-21 09:55:00,
2013-03-21 06:00:00,76.5,71.6,29.91,SW,217,0.0,6.0,85,0.00,,,0.00,0.0,meteohub,2013-03-21 10:00:00,
2013-03-21 06:05:00,76.5,71.6,29.91,SSE,151,2.0,6.0,85,0.00,,,0.00,0.0,meteohub,2013-03-21 10:05:00,
2013-03-21 06:10:00,76.5,71.6,29.91,SSE,152,5.0,8.0,85,0.00,,,0.00,0.0,meteohub,2013-03-21 10:10:00,
2013-03-21 06:15:00,76.5,71.6,29.92,South,185,0.0,8.0,85,0.00,,,0.00,0.0,meteohub,2013-03-21 10:15:00,
2013-03-21 06:20:00,76.5,71.6,29.92,South,184,0.0,9.0,85,0.00,,,0.00,0.0,meteohub,2013-03-21 10:20:00,
2013-03-21 06:25:00,76.5,72.0,29.92,South,185,0.0,7.0,86,0.00,,,0.00,0.0,meteohub,2013-03-21 10:25:00,
2013-03-21 06:30:00,76.5,72.0,29.93,South,181,0.0,2.0,86,0.00,,,0.00,0.0,meteohub,2013-03-21 10:30:00,
2013-03-21 06:35:00,76.5,72.0,29.93,SSW,193,5.0,5.0,86,0.00,,,0.00,0.0,meteohub,2013-03-21 10:35:00,
2013-03-21 06:41:00,76.5,72.0,29.93,South,189,0.0,6.0,86,0.00,,,0.00,11.0,meteohub,2013-03-21 10:41:00,
2013-03-21 06:46:00,76.5,72.0,29.93,SSW,193,0.0,6.0,86,0.00,,,0.00,16.0,meteohub,2013-03-21 10:46:00,
2013-03-21 06:51:00,76.5,72.0,29.93,SSW,192,0.0,6.0,86,0.00,,,0.00,21.0,meteohub,2013-03-21 10:51:00,
2013-03-21 06:56:00,76.6,71.8,29.93,SSE,161,0.0,5.0,85,0.00,,,0.00,26.0,meteohub,2013-03-21 10:56:00,
2013-03-21 07:01:00,76.6,71.8,29.94,South,179,0.0,4.0,85,0.00,,,0.00,40.0,meteohub,2013-03-21 11:01:00,
2013-03-21 07:06:00,76.8,72.0,29.94,SE,137,6.0,6.0,85,0.00,,,0.00,49.0,meteohub,2013-03-21 11:06:00,
2013-03-21 07:11:00,76.8,72.0,29.94,SSE,147,5.0,7.0,85,0.00,,,0.00,111.0,meteohub,2013-03-21 11:11:00,
2013-03-21 07:17:00,77.0,72.1,29.94,SSE,158,0.0,10.0,85,0.00,,,0.00,121.0,meteohub,2013-03-21 11:17:00,
2013-03-21 07:22:00,77.2,72.3,29.94,SSE,151,0.0,10.0,85,0.00,,,0.00,84.0,meteohub,2013-03-21 11:22:00,
2013-03-21 07:27:00,77.5,72.3,29.94,SSE,161,1.0,10.0,84,0.00,,,0.00,70.0,meteohub,2013-03-21 11:27:00,
2013-03-21 07:32:00,77.7,72.5,29.95,SE,141,2.0,9.0,84,0.00,,,0.00,65.0,meteohub,2013-03-21 11:32:00,
2013-03-21 07:37:00,77.7,72.5,29.95,SSE,161,4.0,9.0,84,0.00,,,0.00,63.0,meteohub,2013-03-21 11:37:00,
2013-03-21 07:42:00,77.7,72.5,29.95,SSE,157,0.0,8.0,84,0.00,,,0.00,83.0,meteohub,2013-03-21 11:42:00,
2013-03-21 07:47:00,77.9,72.7,29.95,SSE,155,0.0,8.0,84,0.00,,,0.00,121.0,meteohub,2013-03-21 11:47:00,
2013-03-21 07:52:00,78.1,72.5,29.95,SE,131,0.0,6.0,83,0.00,,,0.00,155.0,meteohub,2013-03-21 11:52:00,
2013-03-21 07:57:00,78.3,72.7,29.95,SSE,160,0.0,4.0,83,0.00,,,0.00,164.0,meteohub,2013-03-21 11:57:00,
2013-03-21 08:02:00,78.3,72.3,29.96,South,178,0.0,11.0,82,0.00,,,0.00,162.0,meteohub,2013-03-21 12:02:00,
2013-03-21 08:07:00,78.3,72.3,29.96,SW,236,5.0,11.0,82,0.00,,,0.00,150.0,meteohub,2013-03-21 12:07:00,
2013-03-21 08:13:00,78.4,72.5,29.98,SSE,154,0.0,10.0,82,0.00,,,0.00,158.0,meteohub,2013-03-21 12:13:00,
2013-03-21 08:18:00,78.6,72.7,29.98,SE,144,0.0,10.0,82,0.00,,,0.00,165.0,meteohub,2013-03-21 12:18:00,
2013-03-21 08:23:00,78.8,72.5,29.98,SE,140,0.0,7.0,81,0.00,,,0.00,178.0,meteohub,2013-03-21 12:23:00,
2013-03-21 08:28:00,79.0,72.3,29.98,SSE,151,0.0,8.0,80,0.00,,,0.00,192.0,meteohub,2013-03-21 12:28:00,
2013-03-21 08:33:00,79.2,72.5,29.98,ESE,114,0.0,9.0,80,0.00,,,0.00,209.0,meteohub,2013-03-21 12:33:00,
2013-03-21 08:38:00,79.3,72.3,29.98,SE,133,0.0,9.0,79,0.00,,,0.00,183.0,meteohub,2013-03-21 12:38:00,
2013-03-21 08:43:00,79.5,72.5,29.99,South,175,0.0,9.0,79,0.00,,,0.00,183.0,meteohub,2013-03-21 12:43:00,
2013-03-21 08:48:00,79.5,72.5,29.99,South,188,6.0,9.0,79,0.00,,,0.00,250.0,meteohub,2013-03-21 12:48:00,
2013-03-21 08:54:00,79.5,72.5,29.99,South,181,0.0,9.0,79,0.00,,,0.00,282.0,meteohub,2013-03-21 12:54:00,
2013-03-21 08:59:00,79.9,72.3,29.99,South,175,0.0,8.0,78,0.00,,,0.00,282.0,meteohub,2013-03-21 12:59:00,
2013-03-21 09:04:00,80.1,72.5,29.99,ESE,121,4.0,8.0,78,0.00,,,0.00,211.0,meteohub,2013-03-21 13:04:00,
2013-03-21 09:09:00,80.2,72.3,29.99,SSW,193,2.0,8.0,77,0.00,,,0.00,241.0,meteohub,2013-03-21 13:09:00,
2013-03-21 09:14:00,80.8,72.5,29.99,South,176,2.0,8.0,76,0.00,,,0.00,276.0,meteohub,2013-03-21 13:14:00,
2013-03-21 09:19:00,81.0,72.3,29.99,South,182,3.0,8.0,75,0.00,,,0.00,318.0,meteohub,2013-03-21 13:19:00,
2013-03-21 09:24:00,81.1,72.5,29.99,SE,137,2.0,7.0,75,0.00,,,0.00,289.0,meteohub,2013-03-21 13:24:00,
2013-03-21 09:29:00,81.7,72.5,29.99,South,172,2.0,10.0,74,0.00,,,0.00,329.0,meteohub,2013-03-21 13:29:00,
2013-03-21 09:34:00,81.3,72.3,29.99,South,182,0.0,10.0,74,0.00,,,0.00,340.0,meteohub,2013-03-21 13:34:00,
2013-03-21 09:39:00,81.9,72.7,29.99,South,189,1.0,10.0,74,0.00,,,0.00,364.0,meteohub,2013-03-21 13:39:00,
2013-03-21 09:44:00,82.0,72.9,29.99,South,188,5.0,5.0,74,0.00,,,0.00,406.0,meteohub,2013-03-21 13:44:00,
2013-03-21 09:49:00,82.4,72.9,29.99,SSW,193,0.0,5.0,73,0.00,,,0.00,405.0,meteohub,2013-03-21 13:49:00,
2013-03-21 09:55:00,82.9,73.0,29.99,South,179,2.0,7.0,72,0.00,,,0.00,371.0,meteohub,2013-03-21 13:55:00,
2013-03-21 10:00:00,83.1,73.2,29.99,South,178,5.0,11.0,72,0.00,,,0.00,489.0,meteohub,2013-03-21 14:00:00,
2013-03-21 10:05:00,84.0,73.9,29.99,SE,145,3.0,11.0,72,0.00,,,0.00,558.0,meteohub,2013-03-21 14:05:00,
2013-03-21 10:10:00,84.0,73.2,29.99,South,179,5.0,11.0,70,0.00,,,0.00,500.0,meteohub,2013-03-21 14:10:00,
2013-03-21 10:15:00,84.0,73.2,29.99,SE,137,6.0,11.0,70,0.00,,,0.00,417.0,meteohub,2013-03-21 14:15:00,
2013-03-21 10:20:00,84.0,72.7,29.99,South,178,3.0,11.0,69,0.00,,,0.00,480.0,meteohub,2013-03-21 14:20:00,
2013-03-21 10:25:00,84.6,72.9,29.99,SE,143,5.0,11.0,68,0.00,,,0.00,445.0,meteohub,2013-03-21 14:25:00,
2013-03-21 10:30:00,84.4,72.1,30.00,SSW,196,2.0,11.0,67,0.00,,,0.00,368.0,meteohub,2013-03-21 14:30:00,
2013-03-21 10:35:00,84.7,73.0,30.00,SE,127,7.0,11.0,68,0.00,,,0.00,1131.0,meteohub,2013-03-21 14:35:00,
2013-03-21 10:40:00,85.6,72.5,30.00,SE,145,5.0,11.0,65,0.00,,,0.00,795.0,meteohub,2013-03-21 14:40:00,
2013-03-21 10:45:00,85.6,72.1,29.99,SE,133,4.0,12.0,64,0.00,,,0.00,496.0,meteohub,2013-03-21 14:45:00,
2013-03-21 10:50:00,85.8,72.1,29.99,SE,143,7.0,12.0,64,0.00,,,0.00,516.0,meteohub,2013-03-21 14:50:00,
2013-03-21 10:55:00,86.2,72.5,29.99,SSE,154,13.0,13.0,64,0.00,,,0.00,621.0,meteohub,2013-03-21 14:55:00,
2013-03-21 11:00:00,86.4,72.3,29.99,South,174,2.0,12.0,63,0.00,,,0.00,862.0,meteohub,2013-03-21 15:00:00,
2013-03-21 11:05:00,86.5,72.5,29.99,SSE,160,8.0,13.0,63,0.00,,,0.00,679.0,meteohub,2013-03-21 15:05:00,
2013-03-21 11:10:00,86.4,72.3,29.99,SSW,196,6.0,13.0,63,0.00,,,0.00,470.0,meteohub,2013-03-21 15:10:00,
2013-03-21 11:15:00,86.2,72.1,29.99,South,172,5.0,13.0,63,0.00,,,0.00,616.0,meteohub,2013-03-21 15:15:00,
2013-03-21 11:20:00,86.7,71.6,29.99,SSE,147,11.0,11.0,61,0.00,,,0.00,1038.0,meteohub,2013-03-21 15:20:00,
2013-03-21 11:25:00,87.3,72.1,29.99,South,185,5.0,13.0,61,0.00,,,0.00,901.0,meteohub,2013-03-21 15:25:00,
2013-03-21 11:30:00,87.8,72.1,29.98,SSE,165,4.0,13.0,60,0.00,,,0.00,215.0,meteohub,2013-03-21 15:30:00,
2013-03-21 11:35:00,88.0,71.8,29.98,SSW,198,6.0,13.0,59,0.00,,,0.00,1065.0,meteohub,2013-03-21 15:35:00,
2013-03-21 11:40:00,87.6,72.0,29.98,SSW,213,2.0,11.0,60,0.00,,,0.00,336.0,meteohub,2013-03-21 15:40:00,
2013-03-21 11:45:00,87.8,72.1,29.97,SE,145,8.0,11.0,60,0.00,,,0.00,732.0,meteohub,2013-03-21 15:45:00,
2013-03-21 11:50:00,88.5,71.8,29.97,SSW,208,5.0,13.0,58,0.00,,,0.00,1160.0,meteohub,2013-03-21 15:50:00,
2013-03-21 11:56:00,88.9,71.6,29.97,SSW,198,2.0,13.0,57,0.00,,,0.00,1094.0,meteohub,2013-03-21 15:56:00,
2013-03-21 12:01:00,89.2,72.5,29.96,South,179,4.0,13.0,58,0.00,,,0.00,1022.0,meteohub,2013-03-21 16:01:00,
2013-03-21 12:06:00,89.8,72.0,29.96,South,176,4.0,13.0,56,0.00,,,0.00,1001.0,meteohub,2013-03-21 16:06:00,
2013-03-21 12:12:00,89.8,72.0,29.96,SSE,147,3.0,13.0,56,0.00,,,0.00,479.0,meteohub,2013-03-21 16:12:00,
2013-03-21 12:17:00,89.2,72.0,29.95,SSE,167,10.0,12.0,57,0.00,,,0.00,327.0,meteohub,2013-03-21 16:17:00,
2013-03-21 12:22:00,90.1,72.3,29.95,ESE,116,3.0,11.0,56,0.00,,,0.00,839.0,meteohub,2013-03-21 16:22:00,
2013-03-21 12:27:00,91.0,72.1,29.95,SE,138,11.0,11.0,54,0.00,,,0.00,992.0,meteohub,2013-03-21 16:27:00,
2013-03-21 12:32:00,90.5,72.7,29.94,SE,127,3.0,12.0,56,0.00,,,0.00,1079.0,meteohub,2013-03-21 16:32:00,
2013-03-21 12:37:00,91.0,72.1,29.94,SE,141,10.0,12.0,54,0.00,,,0.00,1065.0,meteohub,2013-03-21 16:37:00,
2013-03-21 12:42:00,91.4,71.8,29.94,SSE,162,6.0,12.0,53,0.00,,,0.00,1028.0,meteohub,2013-03-21 16:42:00,
2013-03-21 12:47:00,91.6,71.4,29.92,SSE,160,5.0,14.0,52,0.00,,,0.00,1003.0,meteohub,2013-03-21 16:47:00,
2013-03-21 12:52:00,91.6,72.0,29.92,SE,128,2.0,14.0,53,0.00,,,0.00,755.0,meteohub,2013-03-21 16:52:00,
2013-03-21 12:57:00,91.8,72.1,29.92,SSE,148,6.0,14.0,53,0.00,,,0.00,1024.0,meteohub,2013-03-21 16:57:00,
2013-03-21 13:02:00,91.6,72.0,29.92,SSE,148,8.0,14.0,53,0.00,,,0.00,1019.0,meteohub,2013-03-21 17:02:00,
2013-03-21 13:07:00,91.8,72.1,29.92,SSE,148,5.0,16.0,53,0.00,,,0.00,1012.0,meteohub,2013-03-21 17:07:00,
2013-03-21 13:12:00,92.3,72.1,29.91,SSE,168,5.0,16.0,52,0.00,,,0.00,1012.0,meteohub,2013-03-21 17:12:00,
2013-03-21 13:17:00,91.8,72.1,29.91,South,169,3.0,16.0,53,0.00,,,0.00,987.0,meteohub,2013-03-21 17:17:00,
2013-03-21 13:22:00,91.6,72.0,29.91,South,175,2.0,16.0,53,0.00,,,0.00,978.0,meteohub,2013-03-21 17:22:00,
2013-03-21 13:28:00,91.8,71.6,29.91,SE,140,8.0,16.0,52,0.00,,,0.00,961.0,meteohub,2013-03-21 17:28:00,
2013-03-21 13:33:00,92.5,72.3,29.91,SSE,167,4.0,14.0,52,0.00,,,0.00,973.0,meteohub,2013-03-21 17:33:00,
2013-03-21 13:38:00,92.8,72.0,29.91,SSE,151,6.0,14.0,51,0.00,,,0.00,1028.0,meteohub,2013-03-21 17:38:00,
2013-03-21 13:43:00,92.7,72.5,29.90,South,172,5.0,14.0,52,0.00,,,0.00,797.0,meteohub,2013-03-21 17:43:00,
2013-03-21 13:48:00,92.1,72.0,29.90,SSE,152,10.0,13.0,52,0.00,,,0.00,591.0,meteohub,2013-03-21 17:48:00,
2013-03-21 13:53:00,91.6,71.4,29.90,SSE,160,3.0,13.0,52,0.00,,,0.00,452.0,meteohub,2013-03-21 17:53:00,
2013-03-21 13:58:00,91.0,72.1,29.90,SSE,160,7.0,13.0,54,0.00,,,0.00,509.0,meteohub,2013-03-21 17:58:00,
2013-03-21 14:03:00,91.2,72.3,29.90,SSE,160,2.0,16.0,54,0.00,,,0.00,545.0,meteohub,2013-03-21 18:03:00,
2013-03-21 14:08:00,91.4,72.3,29.90,SSE,160,5.0,16.0,54,0.00,,,0.00,530.0,meteohub,2013-03-21 18:08:00,
2013-03-21 14:13:00,91.4,72.3,29.88,SSE,158,6.0,14.0,54,0.00,,,0.00,535.0,meteohub,2013-03-21 18:13:00,
2013-03-21 14:18:00,91.4,71.8,29.88,SE,140,6.0,13.0,53,0.00,,,0.00,1218.0,meteohub,2013-03-21 18:18:00,
2013-03-21 14:23:00,92.1,72.5,29.88,ESE,123,0.0,13.0,53,0.00,,,0.00,375.0,meteohub,2013-03-21 18:23:00,
2013-03-21 14:28:00,91.4,72.3,29.88,SW,222,2.0,13.0,54,0.00,,,0.00,435.0,meteohub,2013-03-21 18:28:00,
2013-03-21 14:33:00,91.0,72.1,29.88,South,178,6.0,13.0,54,0.00,,,0.00,368.0,meteohub,2013-03-21 18:33:00,
2013-03-21 14:38:00,90.7,71.8,29.88,SSE,161,6.0,11.0,54,0.00,,,0.00,315.0,meteohub,2013-03-21 18:38:00,
2013-03-21 14:43:00,91.2,72.3,29.88,South,181,7.0,11.0,54,0.00,,,0.00,948.0,meteohub,2013-03-21 18:43:00,
2013-03-21 14:48:00,91.2,72.3,29.88,South,178,6.0,11.0,54,0.00,,,0.00,273.0,meteohub,2013-03-21 18:48:00,
2013-03-21 14:53:00,90.5,71.6,29.88,SSW,200,6.0,12.0,54,0.00,,,0.00,340.0,meteohub,2013-03-21 18:53:00,
2013-03-21 14:58:00,91.0,72.1,29.87,SE,137,8.0,12.0,54,0.00,,,0.00,818.0,meteohub,2013-03-21 18:58:00,
2013-03-21 15:03:00,91.2,71.6,29.87,SE,145,10.0,12.0,53,0.00,,,0.00,818.0,meteohub,2013-03-21 19:03:00,
2013-03-21 15:09:00,91.2,72.3,29.87,SSW,206,7.0,12.0,54,0.00,,,0.00,727.0,meteohub,2013-03-21 19:09:00,
2013-03-21 15:14:00,90.7,72.3,29.87,South,185,2.0,14.0,55,0.00,,,0.00,318.0,meteohub,2013-03-21 19:14:00,
2013-03-21 15:19:00,90.7,73.4,29.87,SE,134,9.0,14.0,57,0.00,,,0.00,560.0,meteohub,2013-03-21 19:19:00,
2013-03-21 15:24:00,90.3,72.5,29.87,SE,144,10.0,14.0,56,0.00,,,0.00,169.0,meteohub,2013-03-21 19:24:00,
2013-03-21 15:29:00,90.1,72.3,29.86,South,178,5.0,16.0,56,0.00,,,0.00,250.0,meteohub,2013-03-21 19:29:00,
2013-03-21 15:34:00,89.4,72.7,29.86,SSW,192,1.0,16.0,58,0.00,,,0.00,216.0,meteohub,2013-03-21 19:34:00,
2013-03-21 15:39:00,89.1,72.9,29.86,South,172,3.0,17.0,59,0.00,,,0.00,429.0,meteohub,2013-03-21 19:39:00,
2013-03-21 15:44:00,88.5,72.3,29.86,SSE,154,7.0,17.0,59,0.00,,,0.00,396.0,meteohub,2013-03-21 19:44:00,
2013-03-21 15:49:00,88.5,72.3,29.86,SSE,162,10.0,17.0,59,0.00,,,0.00,646.0,meteohub,2013-03-21 19:49:00,
2013-03-21 15:54:00,88.5,72.3,29.86,SW,222,12.0,20.0,59,0.00,,,0.00,144.0,meteohub,2013-03-21 19:54:00,
2013-03-21 15:59:00,88.3,72.1,29.86,SSW,193,5.0,20.0,59,0.00,,,0.00,194.0,meteohub,2013-03-21 19:59:00,
2013-03-21 16:04:00,88.0,72.3,29.86,SSE,150,6.0,20.0,60,0.00,,,0.00,158.0,meteohub,2013-03-21 20:04:00,
2013-03-21 16:10:00,88.2,72.5,29.86,South,179,6.0,20.0,60,0.00,,,0.00,498.0,meteohub,2013-03-21 20:10:00,
2013-03-21 16:15:00,88.3,71.6,29.86,SSE,160,7.0,20.0,58,0.00,,,0.00,528.0,meteohub,2013-03-21 20:15:00,
2013-03-21 16:20:00,88.0,71.4,29.86,SSE,160,1.0,20.0,58,0.00,,,0.00,56.0,meteohub,2013-03-21 20:20:00,
2013-03-21 16:25:00,87.6,71.6,29.86,South,176,6.0,17.0,59,0.00,,,0.00,65.0,meteohub,2013-03-21 20:25:00,
2013-03-21 16:30:00,87.1,71.4,29.86,South,178,8.0,17.0,60,0.00,,,0.00,55.0,meteohub,2013-03-21 20:30:00,
2013-03-21 16:35:00,86.5,72.0,29.86,SSW,206,6.0,16.0,62,0.00,,,0.00,63.0,meteohub,2013-03-21 20:35:00,
2013-03-21 16:40:00,86.4,72.3,29.86,SE,138,13.0,14.0,63,0.00,,,0.00,53.0,meteohub,2013-03-21 20:40:00,
2013-03-21 16:45:00,85.8,72.1,29.86,South,174,3.0,14.0,64,0.00,,,0.00,102.0,meteohub,2013-03-21 20:45:00,
2013-03-21 16:50:00,85.8,72.1,29.86,South,189,2.0,14.0,64,0.00,,,0.00,352.0,meteohub,2013-03-21 20:50:00,
2013-03-21 16:55:00,86.2,72.1,29.86,South,186,5.0,17.0,63,0.00,,,0.00,326.0,meteohub,2013-03-21 20:55:00,
2013-03-21 17:00:00,85.8,71.8,29.87,SSE,157,7.0,17.0,63,0.00,,,0.00,301.0,meteohub,2013-03-21 21:00:00,
2013-03-21 17:05:00,86.2,71.6,29.87,SSE,147,5.0,17.0,62,0.00,,,0.00,285.0,meteohub,2013-03-21 21:05:00,
2013-03-21 17:11:00,86.4,71.8,29.87,South,175,8.0,16.0,62,0.00,,,0.00,267.0,meteohub,2013-03-21 21:11:00,
2013-03-21 17:16:00,86.4,71.8,29.87,SSW,202,6.0,14.0,62,0.00,,,0.00,243.0,meteohub,2013-03-21 21:16:00,
2013-03-21 17:21:00,86.2,72.1,29.87,SSE,165,4.0,14.0,63,0.00,,,0.00,216.0,meteohub,2013-03-21 21:21:00,
2013-03-21 17:26:00,85.8,72.1,29.87,SSW,193,5.0,12.0,64,0.00,,,0.00,195.0,meteohub,2013-03-21 21:26:00,
2013-03-21 17:31:00,85.6,72.5,29.87,South,182,7.0,16.0,65,0.00,,,0.00,172.0,meteohub,2013-03-21 21:31:00,
2013-03-21 17:36:00,85.3,72.1,29.87,SE,133,7.0,16.0,65,0.00,,,0.00,151.0,meteohub,2013-03-21 21:36:00,
2013-03-21 17:42:00,85.1,72.5,29.87,South,181,3.0,16.0,66,0.00,,,0.00,135.0,meteohub,2013-03-21 21:42:00,
2013-03-21 17:47:00,84.9,72.3,29.88,SSW,196,1.0,13.0,66,0.00,,,0.00,121.0,meteohub,2013-03-21 21:47:00,
2013-03-21 17:51:00,84.9,72.3,29.88,SSW,196,7.0,13.0,66,0.00,,,0.00,90.0,meteohub,2013-03-21 21:51:00,
2013-03-21 17:57:00,84.6,72.0,29.88,South,171,5.0,11.0,66,0.00,,,0.00,32.0,meteohub,2013-03-21 21:57:00,
2013-03-21 18:02:00,84.4,71.8,29.89,South,185,5.0,11.0,66,0.00,,,0.00,26.0,meteohub,2013-03-21 22:02:00,
2013-03-21 18:07:00,84.0,72.0,29.89,South,171,1.0,11.0,67,0.00,,,0.00,21.0,meteohub,2013-03-21 22:07:00,
2013-03-21 18:12:00,84.0,72.0,29.89,SSE,155,3.0,11.0,67,0.00,,,0.00,14.0,meteohub,2013-03-21 22:12:00,
2013-03-21 18:17:00,84.0,72.0,29.90,SSE,152,1.0,8.0,67,0.00,,,0.00,12.0,meteohub,2013-03-21 22:17:00,
2013-03-21 18:22:00,84.0,72.0,29.90,South,169,6.0,7.0,67,0.00,,,0.00,11.0,meteohub,2013-03-21 22:22:00,
2013-03-21 18:27:00,83.8,72.5,29.90,SE,128,1.0,7.0,69,0.00,,,0.00,7.0,meteohub,2013-03-21 22:27:00,
2013-03-21 18:32:00,83.7,72.3,29.91,South,181,2.0,7.0,69,0.00,,,0.00,0.0,meteohub,2013-03-21 22:32:00,
2013-03-21 18:37:00,83.5,72.7,29.91,SE,138,1.0,7.0,70,0.00,,,0.00,0.0,meteohub,2013-03-21 22:37:00,
2013-03-21 18:42:00,82.9,72.5,29.91,SSE,158,5.0,7.0,71,0.00,,,0.00,0.0,meteohub,2013-03-21 22:42:00,
2013-03-21 18:47:00,82.6,72.7,29.91,SSW,196,1.0,9.0,72,0.00,,,0.00,0.0,meteohub,2013-03-21 22:47:00,
2013-03-21 18:52:00,82.4,72.9,29.91,SSE,154,0.0,9.0,73,0.00,,,0.00,0.0,meteohub,2013-03-21 22:52:00,
2013-03-21 18:57:00,82.2,72.7,29.92,SSW,193,0.0,9.0,73,0.00,,,0.00,0.0,meteohub,2013-03-21 22:57:00,
2013-03-21 19:02:00,82.2,72.7,29.92,SSE,157,0.0,8.0,73,0.00,,,0.00,0.0,meteohub,2013-03-21 23:02:00,
2013-03-21 19:07:00,82.0,72.5,29.92,SSE,165,0.0,8.0,73,0.00,,,0.00,0.0,meteohub,2013-03-21 23:07:00,
2013-03-21 19:13:00,81.9,72.7,29.93,South,171,0.0,6.0,74,0.00,,,0.00,0.0,meteohub,2013-03-21 23:13:00,
2013-03-21 19:18:00,81.9,72.7,29.93,South,181,0.0,5.0,74,0.00,,,0.00,0.0,meteohub,2013-03-21 23:18:00,
2013-03-21 19:23:00,81.7,72.5,29.93,South,186,0.0,3.0,74,0.00,,,0.00,0.0,meteohub,2013-03-21 23:23:00,
2013-03-21 19:28:00,81.7,72.5,29.94,South,186,0.0,5.0,74,0.00,,,0.00,0.0,meteohub,2013-03-21 23:28:00,
2013-03-21 19:33:00,81.3,72.3,29.94,South,186,0.0,5.0,74,0.00,,,0.00,0.0,meteohub,2013-03-21 23:33:00,
2013-03-21 19:38:00,81.3,72.3,29.94,South,186,0.0,5.0,74,0.00,,,0.00,0.0,meteohub,2013-03-21 23:38:00,
2013-03-21 19:43:00,81.3,72.3,29.94,South,186,0.0,4.0,74,0.00,,,0.00,0.0,meteohub,2013-03-21 23:43:00,
2013-03-21 19:48:00,81.3,72.3,29.94,South,185,0.0,3.0,74,0.00,,,0.00,0.0,meteohub,2013-03-21 23:48:00,
2013-03-21 19:53:00,81.3,72.3,29.94,South,185,0.0,2.0,74,0.00,,,0.00,0.0,meteohub,2013-03-21 23:53:00,
2013-03-21 19:58:00,81.7,72.5,29.94,South,185,0.0,0.0,74,0.00,,,0.00,0.0,meteohub,2013-03-21 23:58:00,
2013-03-21 20:03:00,81.7,72.5,29.94,South,186,0.0,0.0,74,0.00,,,0.00,0.0,meteohub,2013-03-22 00:03:00,
2013-03-21 20:08:00,81.3,72.3,29.94,South,185,0.0,0.0,74,0.00,,,0.00,0.0,meteohub,2013-03-22 00:08:00,
2013-03-21 20:13:00,81.3,71.8,29.95,South,185,0.0,0.0,73,0.00,,,0.00,0.0,meteohub,2013-03-22 00:13:00,
2013-03-21 20:18:00,81.3,72.3,29.95,South,186,0.0,1.0,74,0.00,,,0.00,0.0,meteohub,2013-03-22 00:18:00,
2013-03-21 20:24:00,81.1,72.1,29.95,South,185,0.0,1.0,74,0.00,,,0.00,0.0,meteohub,2013-03-22 00:24:00,
2013-03-21 20:29:00,81.1,72.1,29.95,South,186,0.0,1.0,74,0.00,,,0.00,0.0,meteohub,2013-03-22 00:29:00,
2013-03-21 20:34:00,81.0,71.4,29.95,SSW,205,0.0,0.0,73,0.00,,,0.00,0.0,meteohub,2013-03-22 00:34:00,
2013-03-21 20:39:00,81.0,71.4,29.95,SSW,205,0.0,3.0,73,0.00,,,0.00,0.0,meteohub,2013-03-22 00:39:00,
2013-03-21 20:44:00,81.0,71.4,29.96,SSW,205,0.0,3.0,73,0.00,,,0.00,0.0,meteohub,2013-03-22 00:44:00,
2013-03-21 20:49:00,80.8,71.2,29.96,SSW,212,0.0,3.0,73,0.00,,,0.00,0.0,meteohub,2013-03-22 00:49:00,
2013-03-21 20:54:00,80.8,71.2,29.96,SSW,212,0.0,0.0,73,0.00,,,0.00,0.0,meteohub,2013-03-22 00:54:00,
2013-03-21 20:59:00,80.4,70.9,29.96,SSW,209,0.0,1.0,73,0.00,,,0.00,0.0,meteohub,2013-03-22 00:59:00,
2013-03-21 21:04:00,80.4,70.9,29.96,SSW,210,0.0,1.0,73,0.00,,,0.00,0.0,meteohub,2013-03-22 01:04:00,
2013-03-21 21:09:00,80.2,70.9,29.96,SSW,210,0.0,0.0,73,0.00,,,0.00,0.0,meteohub,2013-03-22 01:09:00,
2013-03-21 21:14:00,80.2,70.9,29.96,SSW,212,0.0,0.0,73,0.00,,,0.00,0.0,meteohub,2013-03-22 01:14:00,
2013-03-21 21:19:00,80.2,70.9,29.96,SSW,210,0.0,0.0,73,0.00,,,0.00,0.0,meteohub,2013-03-22 01:19:00,
2013-03-21 21:24:00,80.1,70.7,29.96,SW,217,0.0,0.0,73,0.00,,,0.00,0.0,meteohub,2013-03-22 01:24:00,
2013-03-21 21:29:00,80.1,70.7,29.96,SW,217,0.0,3.0,73,0.00,,,0.00,0.0,meteohub,2013-03-22 01:29:00,
2013-03-21 21:34:00,79.9,70.9,29.96,SW,216,0.0,3.0,74,0.00,,,0.00,0.0,meteohub,2013-03-22 01:34:00,
2013-03-21 21:39:00,79.9,70.9,29.96,SW,217,0.0,3.0,74,0.00,,,0.00,0.0,meteohub,2013-03-22 01:39:00,
2013-03-21 21:44:00,79.9,70.9,29.97,SW,217,0.0,0.0,74,0.00,,,0.00,0.0,meteohub,2013-03-22 01:44:00,
2013-03-21 21:49:00,79.9,71.2,29.97,SSW,208,0.0,0.0,75,0.00,,,0.00,0.0,meteohub,2013-03-22 01:49:00,
2013-03-21 21:55:00,79.9,71.2,29.97,SSW,205,0.0,0.0,75,0.00,,,0.00,0.0,meteohub,2013-03-22 01:55:00,
2013-03-21 22:00:00,79.9,71.6,29.97,SSW,205,0.0,1.0,76,0.00,,,0.00,0.0,meteohub,2013-03-22 02:00:00,
2013-03-21 22:05:00,79.9,72.0,29.97,SSW,205,0.0,1.0,77,0.00,,,0.00,0.0,meteohub,2013-03-22 02:05:00,
2013-03-21 22:10:00,79.5,71.6,29.97,SSW,205,0.0,1.0,77,0.00,,,0.00,0.0,meteohub,2013-03-22 02:10:00,
2013-03-21 22:15:00,79.5,72.1,29.97,SSW,205,0.0,2.0,78,0.00,,,0.00,0.0,meteohub,2013-03-22 02:15:00,
2013-03-21 22:20:00,79.3,72.0,29.97,SSW,205,0.0,2.0,78,0.00,,,0.00,0.0,meteohub,2013-03-22 02:20:00,
2013-03-21 22:25:00,79.3,72.3,29.97,SSW,206,0.0,2.0,79,0.00,,,0.00,0.0,meteohub,2013-03-22 02:25:00,
2013-03-21 22:30:00,79.2,72.1,29.97,SSW,205,0.0,2.0,79,0.00,,,0.00,0.0,meteohub,2013-03-22 02:30:00,
2013-03-21 22:35:00,79.0,72.0,29.97,SSW,203,0.0,2.0,79,0.00,,,0.00,0.0,meteohub,2013-03-22 02:35:00,
2013-03-21 22:40:00,78.8,72.1,29.97,SSW,203,0.0,1.0,80,0.00,,,0.00,0.0,meteohub,2013-03-22 02:40:00,
2013-03-21 22:45:00,78.8,72.1,29.97,SSW,203,0.0,1.0,80,0.00,,,0.00,0.0,meteohub,2013-03-22 02:45:00,
2013-03-21 22:50:00,78.6,72.0,29.97,South,184,0.0,1.0,80,0.00,,,0.00,0.0,meteohub,2013-03-22 02:50:00,
2013-03-21 22:55:00,78.6,72.0,29.97,South,191,0.0,0.0,80,0.00,,,0.00,0.0,meteohub,2013-03-22 02:55:00,
2013-03-21 23:00:00,78.4,72.1,29.96,SSE,161,0.0,0.0,81,0.00,,,0.00,0.0,meteohub,2013-03-22 03:00:00,
2013-03-21 23:05:00,78.3,72.0,29.96,South,169,0.0,3.0,81,0.00,,,0.00,0.0,meteohub,2013-03-22 03:05:00,
2013-03-21 23:10:00,78.1,71.8,29.96,SSE,168,0.0,4.0,81,0.00,,,0.00,0.0,meteohub,2013-03-22 03:10:00,
2013-03-21 23:15:00,78.1,72.1,29.97,South,169,0.0,4.0,82,0.00,,,0.00,0.0,meteohub,2013-03-22 03:15:00,
2013-03-21 23:20:00,77.9,72.0,29.97,South,169,0.0,0.0,82,0.00,,,0.00,0.0,meteohub,2013-03-22 03:20:00,
2013-03-21 23:25:00,77.7,71.8,29.97,SSE,168,0.0,0.0,82,0.00,,,0.00,0.0,meteohub,2013-03-22 03:25:00,
2013-03-21 23:31:00,77.5,72.0,29.97,SSE,158,0.0,3.0,83,0.00,,,0.00,0.0,meteohub,2013-03-22 03:31:00,
2013-03-21 23:36:00,77.5,72.0,29.97,SSE,157,0.0,3.0,83,0.00,,,0.00,0.0,meteohub,2013-03-22 03:36:00,
2013-03-21 23:41:00,77.4,72.1,29.97,SSE,157,0.0,3.0,84,0.00,,,0.00,0.0,meteohub,2013-03-22 03:41:00,
2013-03-21 23:46:00,77.4,72.1,29.97,SSE,155,0.0,0.0,84,0.00,,,0.00,0.0,meteohub,2013-03-22 03:46:00,
2013-03-21 23:51:00,77.4,72.1,29.97,SSE,157,0.0,0.0,84,0.00,,,0.00,0.0,meteohub,2013-03-22 03:51:00,
2013-03-21 23:56:00,77.2,72.0,29.97,SSE,157,0.0,0.0,84,0.00,,,0.00,0.0,meteohub,2013-03-22 03:56:00,